Weather History for Pinedale, WY

Change the Weather History Date:

Wednesday, April 10, 2013

  Actual Average (KBPI) Record (KBPI)
Temperature  
Mean Temperature 30 °F 36 °F  
Max Temperature 42 °F 51 °F 70 °F (2012)
Min Temperature 17 °F 21 °F 4 °F (1989)
Degree Days  
Heating Degree Days 36 29  
Month to date heating degree days 305  
Since 1 July heating degree days 9000  
Cooling Degree Days 0 0  
Month to date cooling degree days 0  
Year to date cooling degree days 0  
Moisture  
Dew Point 19 °F    
Average Humidity 70    
Maximum Humidity 93    
Minimum Humidity 41    
Precipitation  
Precipitation 0.00 in 0.01 in 0.26 in (1994)
Month to date precipitation 0.16  
Year to date precipitation 1.26  
Sea Level Pressure  
Sea Level Pressure 30.00 in    
Wind  
Wind Speed 7 mph (WSW)    
Max Wind Speed 29 mph    
Max Gust Speed 37 mph    
Visibility 9 miles    
Events Snow    
T = Trace of Precipitation, MM = Missing Value Source: NWS Daily Summary

Daily Weather History Graph

Daily Weather History Graph

Search for Another Location

Airport:

Trip Planner

Search our weather history database for the weather conditions in past years. The results will help you decide how hot, cold, wet, or windy it might be!

Date:

Astronomy

Apr. 10, 2013 Rise Set
Actual Time 6:45 AM MDT 7:56 PM MDT
Civil Twilight 6:16 AM MDT 8:25 PM MDT
Nautical Twilight 5:41 AM MDT 9:00 PM MDT
Astronomical Twilight 5:05 AM MDT 9:36 PM MDT
Moon 6:42 AM MDT (4/10) 8:36 PM MDT (4/10)
Length of Visible Light 14h 08m
Length of Day
13h 10m
New Moon, 0% of the Moon is Illuminated
Apr 10
New Moon
Apr 18
First Quarter
Apr 25
Full
May 2
Last Quarter
May 9
New

Hourly Weather History & Observations

Time (MDT) Temp. Windchill Dew Point Humidity Pressure Visibility Wind Dir Wind Speed Gust Speed Precip Events Conditions
12:15 AM 21.2 °F 16.4 °F 17.6 °F 86% 30.09 in 10.0 mi South 3.5 mph - N/A   Overcast
12:35 AM 19.4 °F 14.3 °F 17.6 °F 93% 30.09 in 10.0 mi South 3.5 mph - N/A   Overcast
12:55 AM 19.4 °F 11.5 °F 17.6 °F 93% 30.09 in 10.0 mi SSE 5.8 mph - N/A Snow Light Snow
1:15 AM 19.4 °F 9.5 °F 17.6 °F 93% 30.08 in 10.0 mi SSE 8.1 mph - N/A Snow Light Snow
1:35 AM 19.4 °F 11.5 °F 17.6 °F 93% 30.08 in 10.0 mi SSE 5.8 mph - N/A   Overcast
1:55 AM 19.4 °F 11.5 °F 17.6 °F 93% 30.08 in 10.0 mi SSE 5.8 mph - N/A   Overcast
2:15 AM 17.6 °F 9.3 °F 15.8 °F 93% 30.08 in 10.0 mi SSE 5.8 mph - N/A   Overcast
2:35 AM 17.6 °F 10.7 °F 14.0 °F 86% 30.08 in 10.0 mi SSE 4.6 mph - N/A   Overcast
2:55 AM 17.6 °F - 14.0 °F 86% 30.07 in 10.0 mi Calm Calm - N/A Snow Light Snow
3:15 AM 17.6 °F 12.3 °F 14.0 °F 86% 30.08 in 10.0 mi SE 3.5 mph - N/A   Overcast
3:35 AM 17.6 °F 10.7 °F 14.0 °F 86% 30.07 in 10.0 mi SE 4.6 mph - N/A   Overcast
3:55 AM 17.6 °F 10.7 °F 14.0 °F 86% 30.08 in 10.0 mi SE 4.6 mph - N/A   Overcast
4:15 AM 17.6 °F 12.3 °F 14.0 °F 86% 30.07 in 10.0 mi SE 3.5 mph - N/A   Overcast
4:35 AM 17.6 °F 12.3 °F 14.0 °F 86% 30.07 in 10.0 mi SE 3.5 mph - N/A   Overcast
4:55 AM 17.6 °F 9.3 °F 14.0 °F 86% 30.07 in 10.0 mi SE 5.8 mph - N/A   Overcast
5:15 AM 17.6 °F 9.3 °F 14.0 °F 86% 30.07 in 10.0 mi ESE 5.8 mph - N/A   Overcast
5:35 AM 17.6 °F 8.2 °F 14.0 °F 86% 30.07 in 10.0 mi ESE 6.9 mph - N/A Snow Light Snow
5:55 AM 17.6 °F 10.7 °F 14.0 °F 86% 30.08 in 5.0 mi ESE 4.6 mph - N/A Snow Light Snow
6:15 AM 17.6 °F 8.2 °F 14.0 °F 86% 30.08 in 7.0 mi ESE 6.9 mph - N/A Snow Light Snow
6:35 AM 17.6 °F 8.2 °F 14.0 °F 86% 30.08 in 5.0 mi SE 6.9 mph - N/A Snow Light Snow
6:55 AM 17.6 °F - 14.0 °F 86% 30.09 in 7.0 mi Calm Calm - N/A Snow Light Snow
7:15 AM 17.6 °F 12.3 °F 14.0 °F 86% 30.08 in 4.0 mi SSE 3.5 mph - N/A Snow Light Snow
7:35 AM 17.6 °F 12.3 °F 14.0 °F 86% 30.09 in 4.0 mi SE 3.5 mph - N/A Snow Light Snow
7:55 AM 17.6 °F 12.3 °F 14.0 °F 86% 30.09 in 3.0 mi SSE 3.5 mph - N/A Snow Light Snow
8:15 AM 17.6 °F 12.3 °F 14.0 °F 86% 30.09 in 2.5 mi SSE 3.5 mph - N/A Snow Light Snow
8:35 AM 17.6 °F - 14.0 °F 86% 30.09 in 2.0 mi Calm Calm - N/A Snow Light Snow
8:55 AM 19.4 °F - 14.0 °F 80% 30.09 in 1.8 mi Calm Calm - N/A Snow Light Snow
9:15 AM 19.4 °F - 14.0 °F 80% 30.09 in 7.0 mi Calm Calm - N/A Snow Light Snow
9:35 AM 21.2 °F - 14.0 °F 74% 30.09 in 10.0 mi Calm Calm - N/A   Overcast
9:55 AM 21.2 °F - 14.0 °F 74% 30.08 in 10.0 mi Calm Calm - N/A   Overcast
10:15 AM 23.0 °F - 14.0 °F 68% 30.08 in 10.0 mi Calm Calm - N/A   Scattered Clouds
10:35 AM 23.0 °F 18.4 °F 15.8 °F 74% 30.08 in 10.0 mi SSW 3.5 mph - N/A   Scattered Clouds
10:55 AM 26.6 °F - 17.6 °F 69% 30.08 in 10.0 mi Calm Calm - N/A   Scattered Clouds
11:15 AM 28.4 °F 24.6 °F 17.6 °F 64% 30.06 in 10.0 mi SW 3.5 mph - N/A   Scattered Clouds
11:35 AM 28.4 °F - 17.6 °F 64% 30.06 in 10.0 mi Calm Calm - N/A   Scattered Clouds
12:15 PM 32.0 °F 26.4 °F 15.8 °F 51% 30.04 in 10.0 mi WNW 5.8 mph - N/A   Scattered Clouds
12:35 PM 33.8 °F 26.4 °F 17.6 °F 52% 30.03 in 10.0 mi WSW 9.2 mph - N/A   Scattered Clouds
12:55 PM 35.6 °F 28.6 °F 17.6 °F 48% 30.01 in 10.0 mi West 9.2 mph 16.1 mph N/A   Clear
1:15 PM 35.6 °F 26.2 °F 15.8 °F 44% 30.00 in 10.0 mi West 15.0 mph 21.9 mph N/A   Clear
1:35 PM 37.4 °F 28.2 °F 17.6 °F 45% 29.98 in 10.0 mi West 16.1 mph 23.0 mph N/A   Clear
1:55 PM 37.4 °F 29.8 °F 15.8 °F 41% 29.97 in 10.0 mi WNW 11.5 mph 24.2 mph N/A   Clear
2:15 PM 39.2 °F 31.2 °F 17.6 °F 42% 29.97 in 10.0 mi West 13.8 mph 23.0 mph N/A   Scattered Clouds
2:35 PM 41.0 °F 31.9 °F 19.4 °F 42% 29.96 in 10.0 mi WNW 19.6 mph 26.5 mph N/A   Scattered Clouds
2:55 PM 41.0 °F 32.2 °F 19.4 °F 42% 29.95 in 10.0 mi West 18.4 mph 26.5 mph N/A   Mostly Cloudy
3:15 PM 41.0 °F 32.5 °F 21.2 °F 45% 29.94 in 10.0 mi WNW 17.3 mph 24.2 mph N/A   Scattered Clouds
3:35 PM 41.0 °F 31.9 °F 21.2 °F 45% 29.93 in 10.0 mi WNW 19.6 mph 27.6 mph N/A   Scattered Clouds
3:55 PM 42.8 °F 33.5 °F 21.2 °F 42% 29.92 in 10.0 mi WNW 23.0 mph 28.8 mph N/A   Clear
4:15 PM 42.8 °F 33.5 °F 23.0 °F 46% 29.91 in 10.0 mi WNW 23.0 mph 28.8 mph N/A   Clear
4:35 PM 42.8 °F 33.5 °F 23.0 °F 46% 29.91 in 10.0 mi WNW 23.0 mph 29.9 mph N/A   Clear
4:55 PM 42.8 °F 34.0 °F 24.8 °F 49% 29.90 in 10.0 mi West 20.7 mph 31.1 mph N/A   Clear
5:15 PM 42.8 °F 32.9 °F 23.0 °F 46% 29.89 in 10.0 mi WNW 26.5 mph 31.1 mph N/A   Clear
5:35 PM 41.0 °F 30.0 °F 23.0 °F 49% 29.89 in 10.0 mi WNW 28.8 mph 36.8 mph N/A   Clear
5:55 PM 42.8 °F 33.3 °F 23.0 °F 46% 29.89 in 10.0 mi WNW 24.2 mph 34.5 mph N/A   Clear
6:15 PM 41.0 °F 30.2 °F 23.0 °F 49% 29.89 in 10.0 mi WNW 27.6 mph 35.7 mph N/A   Clear
6:35 PM 41.0 °F 30.9 °F 23.0 °F 49% 29.89 in 10.0 mi WNW 24.2 mph 31.1 mph N/A   Clear
6:55 PM 41.0 °F 30.9 °F 23.0 °F 49% 29.88 in 10.0 mi WNW 24.2 mph 31.1 mph N/A   Clear
7:15 PM 39.2 °F 29.8 °F 23.0 °F 52% 29.88 in 10.0 mi WNW 18.4 mph 32.2 mph N/A   Clear
7:35 PM 37.4 °F 26.9 °F 23.0 °F 56% 29.88 in 10.0 mi WNW 20.7 mph 27.6 mph N/A   Clear
7:55 PM 37.4 °F 26.6 °F 23.0 °F 56% 29.90 in 10.0 mi West 21.9 mph 29.9 mph N/A   Clear
8:15 PM 35.6 °F 27.1 °F 24.8 °F 65% 29.91 in 10.0 mi West 12.7 mph - N/A   Clear
8:35 PM 33.8 °F 24.8 °F 24.8 °F 70% 29.92 in 10.0 mi West 12.7 mph - N/A   Clear
8:55 PM 35.6 °F 26.6 °F 24.8 °F 65% 29.92 in 10.0 mi West 13.8 mph - N/A   Clear
9:15 PM 33.8 °F 25.8 °F 24.8 °F 70% 29.92 in 10.0 mi West 10.4 mph - N/A   Scattered Clouds
9:35 PM 32.0 °F 23.6 °F 24.8 °F 75% 29.92 in 10.0 mi West 10.4 mph - N/A   Scattered Clouds
9:55 PM 32.0 °F 22.1 °F 24.8 °F 75% 29.92 in 10.0 mi West 13.8 mph - N/A   Clear
10:15 PM 32.0 °F 24.8 °F 24.8 °F 75% 29.93 in 10.0 mi WNW 8.1 mph - N/A   Scattered Clouds
10:35 PM 33.8 °F 27.0 °F 26.6 °F 75% 29.93 in 10.0 mi NW 8.1 mph - N/A   Mostly Cloudy
10:55 PM 32.0 °F 28.7 °F 26.6 °F 80% 29.92 in 10.0 mi NW 3.5 mph - N/A   Overcast
11:15 PM 32.0 °F - 26.6 °F 80% 29.92 in 10.0 mi Calm Calm - N/A   Overcast
11:35 PM 32.0 °F 28.7 °F 26.6 °F 80% 29.92 in 10.0 mi SSW 3.5 mph - N/A   Overcast
11:55 PM 32.0 °F - 26.6 °F 80% 29.90 in 10.0 mi Calm Calm - N/A   Overcast